JST858 YPAD-YPPH

Flight info

Callsign JST858
Flight time 0h 25m
Altitude 26000
Route AREPA1/05 AREPA H54 KAMBI Q32 NODEV Q10 MALUP Q158 PH
Aircraft A21N/M-SDE2E3FGHIJ1RWXYZ/LB1

Departure

Time 2025-09-05 05:23
Airport Adelaide International Airport (YPAD)

Arrival

Time 2025-09-05 05:49
Airport Perth International Airport (YPPH)
Time Latitude Longitude Altitude Speed Heading
2025-09-05 04:57 -34.94085 138.53628 31 ft 0 kts 320°
2025-09-05 05:09 -34.94094 138.53637 31 ft 3 kts 320°
2025-09-05 05:09 -34.94123 138.53670 31 ft 3 kts 311°
2025-09-05 05:10 -34.94138 138.53707 31 ft 2 kts 243°
2025-09-05 05:10 -34.94135 138.53713 31 ft 0 kts 230°
2025-09-05 05:15 -34.94155 138.53685 26 ft 4 kts 230°
2025-09-05 05:16 -34.94224 138.53638 31 ft 9 kts 140°
2025-09-05 05:17 -34.94408 138.53485 31 ft 15 kts 230°
2025-09-05 05:17 -34.94521 138.53255 31 ft 17 kts 276°
2025-09-05 05:17 -34.94462 138.53128 31 ft 18 kts 305°
2025-09-05 05:18 -34.94524 138.52930 31 ft 16 kts 219°
2025-09-05 05:19 -34.94826 138.52645 31 ft 20 kts 217°
2025-09-05 05:19 -34.94941 138.52537 31 ft 22 kts 217°
2025-09-05 05:19 -34.95193 138.52301 31 ft 24 kts 218°
2025-09-05 05:20 -34.95435 138.52254 31 ft 8 kts 142°
2025-09-05 05:21 -34.95452 138.52305 31 ft 1 kts 40°
2025-09-05 05:21 -34.95445 138.52314 31 ft 1 kts 50°
2025-09-05 05:21 -34.95434 138.52331 31 ft 15 kts 50°
2025-09-05 05:22 -34.94621 138.53521 83 ft 149 kts 51°
2025-09-05 05:22 -34.93319 138.55411 1516 ft 151 kts 51°
2025-09-05 05:23 -34.91657 138.57805 2258 ft 221 kts 48°
2025-09-05 05:23 -34.89544 138.60830 4067 ft 245 kts 46°
2025-09-05 05:24 -34.86142 138.65745 6987 ft 264 kts 46°
2025-09-05 05:24 -34.84773 138.67249 7612 ft 264 kts 26°
2025-09-05 05:25 -34.81270 138.67716 8892 ft 260 kts 338°
2025-09-05 05:25 -34.78422 138.65006 10300 ft 265 kts 304°
2025-09-05 05:26 -34.78004 138.58079 11192 ft 324 kts 246°
2025-09-05 05:27 -34.80314 138.53039 11625 ft 357 kts 243°
2025-09-05 05:27 -34.82351 138.47365 12018 ft 379 kts 261°
2025-09-05 05:27 -34.82513 138.44154 12365 ft 384 kts 276°
2025-09-05 05:28 -34.80322 138.34766 13958 ft 389 kts 288°
2025-09-05 05:29 -34.78664 138.28473 14866 ft 388 kts 287°
2025-09-05 05:29 -34.77046 138.22251 15687 ft 393 kts 287°
2025-09-05 05:30 -34.74717 138.16150 16270 ft 404 kts 302°
2025-09-05 05:30 -34.71537 138.10468 17091 ft 407 kts 303°
2025-09-05 05:31 -34.68324 138.04769 17929 ft 411 kts 302°
2025-09-05 05:31 -34.66713 138.01893 18347 ft 412 kts 302°
2025-09-05 05:31 -34.63507 137.96148 19042 ft 416 kts 302°
2025-09-05 05:32 -32.17355 116.87092 18834 ft 404 kts 280°
2025-09-05 05:33 -32.16557 116.80573 17438 ft 393 kts 276°
2025-09-05 05:33 -32.15885 116.74223 15803 ft 391 kts 276°
2025-09-05 05:34 -32.15205 116.67972 14477 ft 384 kts 277°
2025-09-05 05:34 -32.14830 116.64868 13860 ft 380 kts 278°
2025-09-05 05:34 -32.14829 116.58873 13280 ft 350 kts 263°
2025-09-05 05:35 -32.15465 116.53470 12549 ft 316 kts 263°
2025-09-05 05:35 -32.16019 116.48585 12128 ft 289 kts 263°
2025-09-05 05:36 -32.16761 116.41756 11142 ft 280 kts 263°
2025-09-05 05:37 -32.17241 116.37310 10712 ft 265 kts 263°
2025-09-05 05:37 -32.17698 116.33048 10138 ft 259 kts 262°
2025-09-05 05:38 -32.18142 116.28878 9426 ft 258 kts 262°
2025-09-05 05:38 -32.18365 116.26783 9062 ft 257 kts 262°
2025-09-05 05:38 -32.18807 116.22624 8391 ft 254 kts 261°
2025-09-05 05:39 -32.19238 116.18530 7775 ft 247 kts 262°
2025-09-05 05:39 -32.19652 116.14591 6861 ft 241 kts 262°
2025-09-05 05:40 -32.19791 116.08705 5245 ft 234 kts 268°
2025-09-05 05:41 -32.19824 116.04882 4225 ft 231 kts 268°
2025-09-05 05:41 -32.19538 116.01169 3584 ft 227 kts 282°
2025-09-05 05:41 -32.19141 115.99396 3409 ft 228 kts 283°
2025-09-05 05:42 -32.18366 115.95972 3379 ft 198 kts 283°
2025-09-05 05:43 -32.17381 115.91528 3412 ft 185 kts 284°
2025-09-05 05:43 -32.16767 115.90211 3394 ft 189 kts 317°
2025-09-05 05:43 -32.14186 115.90134 3415 ft 201 kts 18°
2025-09-05 05:44 -32.10457 115.91706 2984 ft 174 kts 11°
2025-09-05 05:45 -32.08140 115.92382 2583 ft 170 kts 11°
2025-09-05 05:45 -32.06990 115.92719 2359 ft 171 kts 11°
2025-09-05 05:45 -32.04763 115.93380 1932 ft 156 kts 11°
2025-09-05 05:46 -32.02767 115.93947 1450 ft 146 kts 10°
2025-09-05 05:47 -31.99792 115.94845 883 ft 147 kts 12°
2025-09-05 05:47 -31.98798 115.95111 688 ft 146 kts
2025-09-05 05:47 -31.96796 115.95715 329 ft 151 kts
2025-09-05 05:48 -31.95803 115.95989 140 ft 150 kts
2025-09-05 05:48 -31.94375 115.96427 62 ft 0 kts
2025-09-05 05:49 -31.93565 115.96586 61 ft 136 kts
2025-09-05 05:49 -31.91535 115.96892 1084 ft 155 kts
2025-09-05 05:50 -31.89420 115.96056 2358 ft 105 kts 210°
2025-09-05 05:50 -31.90177 115.96254 523 ft 203 kts 132°